When you browse on this site, cookies collect data to enhance your experience and personalize the content and advertising you see.
Visit our Privacy Policy to learn more. By continuing to use the site, you agree to this use of cookies and data.
  • In Portugal
  • List of Countries
  • For 7 days
  • Water Temperature
  • Satellite Maps
  • Weather Map
  • Weather Widgets
  • user-avatar
    Login

    Hourly Weather Dneprovskiy

    Today, 26 April, Friday

    Time Temperature Precipitation Wind Pressure Humidity
    00:00 +13°C° 0 mm 2 mps 754 mmHg 57%
    01:00 +12°C° 0 mm 2 mps 754 mmHg 60%
    02:00 +10°C° 0 mm 2 mps 753 mmHg 63%
    03:00 +10°C° 0 mm 2 mps 753 mmHg 65%
    04:00 +10°C° 0 mm 2 mps 753 mmHg 67%
    05:00 +9°C° 0 mm 2 mps 753 mmHg 69%
    06:00 +12°C° 0 mm 2 mps 753 mmHg 64%
    07:00 +13°C° 0 mm 3 mps 753 mmHg 60%
    08:00 +16°C° 0 mm 3 mps 753 mmHg 56%
    09:00 +18°C° 0 mm 3 mps 752 mmHg 51%
    10:00 +19°C° 0 mm 4 mps 752 mmHg 46%
    11:00 +21°C° 0 mm 4 mps 752 mmHg 41%
    12:00 +22°C° 0 mm 4 mps 752 mmHg 39%
    13:00 +22°C° 0 mm 4 mps 751 mmHg 37%
    14:00 +23°C° 0 mm 4 mps 751 mmHg 35%
    15:00 +23°C° 0 mm 4 mps 751 mmHg 36%
    16:00 +22°C° 0 mm 4 mps 750 mmHg 36%
    17:00 +22°C° 0 mm 4 mps 750 mmHg 37%
    18:00 +20°C° 0 mm 3 mps 750 mmHg 42%
    19:00 +18°C° 0 mm 3 mps 750 mmHg 46%
    20:00 +16°C° 0 mm 3 mps 750 mmHg 51%
    21:00 +16°C° 0 mm 3 mps 750 mmHg 54%
    22:00 +14°C° 0 mm 3 mps 749 mmHg 57%
    23:00 +14°C° 0 mm 3 mps 749 mmHg 60%

    Tomorrow, 27 April, Saturday

    Time Temperature Precipitation Wind Pressure Humidity
    00:00 +13°C° 0 mm 3 mps 749 mmHg 64%
    01:00 +13°C° 0 mm 3 mps 749 mmHg 68%
    02:00 +12°C° 0 mm 3 mps 748 mmHg 73%
    03:00 +12°C° 0 mm 3 mps 748 mmHg 74%
    04:00 +12°C° 0 mm 3 mps 748 mmHg 76%
    05:00 +12°C° 0 mm 3 mps 747 mmHg 77%
    06:00 +13°C° 0.1 mm 3 mps 747 mmHg 76%
    07:00 +13°C° 0.1 mm 3 mps 747 mmHg 75%
    08:00 +14°C° 0.1 mm 3 mps 747 mmHg 75%
    09:00 +17°C° 0.4 mm 4 mps 746 mmHg 69%
    10:00 +18°C° 0.4 mm 4 mps 746 mmHg 64%
    11:00 +20°C° 0.4 mm 4 mps 746 mmHg 59%
    12:00 +21°C° 0.2 mm 4 mps 746 mmHg 56%
    13:00 +23°C° 0.2 mm 4 mps 745 mmHg 52%
    14:00 +25°C° 0.2 mm 5 mps 745 mmHg 49%
    15:00 +23°C° 0.4 mm 4 mps 745 mmHg 54%
    16:00 +24°C° 0.4 mm 3 mps 744 mmHg 58%
    17:00 +22°C° 0.4 mm 3 mps 744 mmHg 62%
    18:00 +21°C° 0.1 mm 2 mps 744 mmHg 69%
    19:00 +19°C° 0.1 mm 2 mps 744 mmHg 76%
    20:00 +17°C° 0.1 mm 2 mps 744 mmHg 82%
    21:00 +18°C° 0.1 mm 1 mps 744 mmHg 85%
    22:00 +16°C° 0.1 mm 1 mps 743 mmHg 88%
    23:00 +15°C° 0.1 mm 1 mps 743 mmHg 92%

    Day after tomorrow, 28 April, Sunday

    Time Temperature Precipitation Wind Pressure Humidity
    00:00 +15°C° 0 mm 1 mps 743 mmHg 92%
    01:00 +15°C° 0 mm 1 mps 743 mmHg 92%
    02:00 +13°C° 0 mm 0 mps 743 mmHg 92%
    03:00 +14°C° 0.1 mm 1 mps 743 mmHg 93%
    04:00 +14°C° 0.1 mm 1 mps 743 mmHg 93%
    05:00 +14°C° 0.1 mm 1 mps 743 mmHg 94%
    06:00 +15°C° 0.5 mm 1 mps 743 mmHg 90%
    07:00 +16°C° 0.5 mm 1 mps 744 mmHg 86%
    08:00 +17°C° 0.5 mm 2 mps 744 mmHg 82%
    09:00 +19°C° 0.4 mm 2 mps 744 mmHg 75%
    10:00 +21°C° 0.4 mm 3 mps 744 mmHg 69%
    11:00 +22°C° 0.4 mm 4 mps 744 mmHg 62%
    12:00 +22°C° 0.7 mm 4 mps 744 mmHg 59%
    13:00 +23°C° 0.7 mm 4 mps 745 mmHg 57%
    14:00 +23°C° 0.7 mm 4 mps 745 mmHg 54%
    15:00 +22°C° 1.5 mm 4 mps 745 mmHg 59%
    16:00 +21°C° 1.5 mm 4 mps 745 mmHg 64%
    17:00 +20°C° 1.5 mm 4 mps 745 mmHg 69%
    18:00 +19°C° 0.1 mm 4 mps 746 mmHg 73%
    19:00 +16°C° 0.1 mm 5 mps 746 mmHg 77%
    20:00 +15°C° 0.1 mm 6 mps 747 mmHg 81%
    21:00 +14°C° 0 mm 6 mps 747 mmHg 81%
    22:00 +13°C° 0 mm 6 mps 747 mmHg 81%
    23:00 +10°C° 0 mm 6 mps 748 mmHg 81%

    29 April, Monday

    Time Temperature Precipitation Wind Pressure Humidity
    00:00 +10°C° 0 mm 6 mps 748 mmHg 80%
    01:00 +9°C° 0 mm 6 mps 748 mmHg 78%
    02:00 +8°C° 0 mm 6 mps 749 mmHg 77%
    03:00 +8°C° 0 mm 6 mps 749 mmHg 74%
    04:00 +7°C° 0 mm 6 mps 749 mmHg 71%
    05:00 +5°C° 0 mm 6 mps 749 mmHg 68%
    06:00 +7°C° 0 mm 6 mps 749 mmHg 67%
    07:00 +8°C° 0 mm 6 mps 750 mmHg 66%
    08:00 +8°C° 0 mm 7 mps 750 mmHg 65%
    09:00 +9°C° 0 mm 7 mps 750 mmHg 61%
    10:00 +11°C° 0 mm 7 mps 750 mmHg 56%
    11:00 +12°C° 0 mm 7 mps 750 mmHg 51%
    12:00 +14°C° 0 mm 7 mps 750 mmHg 49%
    13:00 +14°C° 0 mm 7 mps 750 mmHg 47%
    14:00 +15°C° 0 mm 6 mps 750 mmHg 45%
    15:00 +14°C° 0 mm 6 mps 750 mmHg 46%
    16:00 +14°C° 0 mm 6 mps 750 mmHg 48%
    17:00 +14°C° 0 mm 6 mps 749 mmHg 49%
    18:00 +12°C° 0 mm 5 mps 750 mmHg 53%
    19:00 +11°C° 0 mm 4 mps 750 mmHg 58%
    20:00 +8°C° 0 mm 4 mps 750 mmHg 62%
    21:00 +8°C° 0 mm 4 mps 750 mmHg 64%
    22:00 +7°C° 0 mm 4 mps 750 mmHg 66%
    23:00 +6°C° 0 mm 4 mps 750 mmHg 68%

    30 April, Tuesday

    Time Temperature Precipitation Wind Pressure Humidity
    00:00 +5°C° 0 mm 4 mps 750 mmHg 68%
    01:00 +5°C° 0 mm 4 mps 749 mmHg 68%
    02:00 +4°C° 0 mm 4 mps 749 mmHg 67%
    03:00 +4°C° 0 mm 4 mps 749 mmHg 68%
    04:00 +3°C° 0 mm 4 mps 749 mmHg 69%
    05:00 +3°C° 0 mm 4 mps 749 mmHg 70%
    06:00 +3°C° 0 mm 5 mps 748 mmHg 65%
    07:00 +6°C° 0 mm 5 mps 748 mmHg 61%
    08:00 +7°C° 0 mm 5 mps 748 mmHg 57%
    09:00 +8°C° 0 mm 6 mps 748 mmHg 53%
    10:00 +10°C° 0 mm 6 mps 748 mmHg 49%
    11:00 +11°C° 0 mm 6 mps 748 mmHg 45%
    12:00 +13°C° 0 mm 6 mps 747 mmHg 44%
    13:00 +14°C° 0 mm 6 mps 747 mmHg 43%
    14:00 +14°C° 0 mm 6 mps 746 mmHg 42%
    15:00 +14°C° 0 mm 6 mps 746 mmHg 43%
    16:00 +14°C° 0 mm 5 mps 746 mmHg 44%
    17:00 +13°C° 0 mm 5 mps 746 mmHg 45%
    18:00 +12°C° 0 mm 4 mps 746 mmHg 48%
    19:00 +11°C° 0 mm 4 mps 746 mmHg 50%
    20:00 +10°C° 0 mm 3 mps 746 mmHg 53%
    21:00 +10°C° 0 mm 3 mps 746 mmHg 56%
    22:00 +9°C° 0 mm 3 mps 746 mmHg 58%
    23:00 +8°C° 0 mm 3 mps 746 mmHg 61%

    1 May, Wednesday

    Time Temperature Precipitation Wind Pressure Humidity
    00:00 +7°C° 0 mm 3 mps 746 mmHg 65%
    01:00 +5°C° 0 mm 3 mps 746 mmHg 69%
    02:00 +5°C° 0 mm 2 mps 746 mmHg 74%
    03:00 +5°C° 0 mm 2 mps 746 mmHg 75%
    04:00 +4°C° 0 mm 2 mps 746 mmHg 77%
    05:00 +4°C° 0 mm 2 mps 746 mmHg 78%
    06:00 +5°C° 0 mm 3 mps 746 mmHg 71%
    07:00 +8°C° 0 mm 3 mps 746 mmHg 64%
    08:00 +10°C° 0 mm 4 mps 747 mmHg 57%
    09:00 +11°C° 0 mm 4 mps 746 mmHg 52%
    10:00 +12°C° 0 mm 4 mps 746 mmHg 48%
    11:00 +13°C° 0 mm 5 mps 746 mmHg 43%
    12:00 +13°C° 0 mm 4 mps 746 mmHg 43%
    13:00 +13°C° 0 mm 4 mps 746 mmHg 43%
    14:00 +13°C° 0 mm 4 mps 745 mmHg 43%
    15:00 +13°C° 0 mm 4 mps 745 mmHg 45%
    16:00 +12°C° 0 mm 3 mps 745 mmHg 46%
    17:00 +12°C° 0 mm 3 mps 745 mmHg 48%
    18:00 +11°C° 0 mm 3 mps 745 mmHg 51%
    19:00 +10°C° 0 mm 2 mps 745 mmHg 54%
    20:00 +10°C° 0 mm 2 mps 745 mmHg 57%
    21:00 +9°C° 0 mm 2 mps 745 mmHg 58%
    22:00 +9°C° 0 mm 2 mps 745 mmHg 60%
    23:00 +8°C° 0 mm 2 mps 744 mmHg 61%
    Show more